ASA65 PAWG-PAPG

Flight info

Callsign ASA65
Flight time 0h 15m
Altitude 6000
Route KAJBU5 KAJBU
Aircraft B737/M-SDE2E3FGHIRWXY/LB1

Departure

Time 2026-04-30 09:44
Airport Wrangell Airport (PAWG)

Arrival

Time 2026-04-30 10:00
Airport Petersburg James A Johnson Airport (PAPG)
Time Latitude Longitude Altitude Speed Heading
2026-04-30 09:41 56.48607 -132.37902 28 ft 3 kts 32°
2026-04-30 09:41 56.48627 -132.37880 28 ft 3 kts 32°
2026-04-30 09:41 56.48645 -132.37859 27 ft 3 kts 29°
2026-04-30 09:42 56.48668 -132.37842 27 ft 5 kts 16°
2026-04-30 09:42 56.48714 -132.37863 26 ft 8 kts 328°
2026-04-30 09:42 56.48754 -132.37952 27 ft 9 kts 303°
2026-04-30 09:42 56.48789 -132.38051 28 ft 9 kts 302°
2026-04-30 09:43 56.48825 -132.38142 28 ft 9 kts 318°
2026-04-30 09:43 56.48859 -132.38219 27 ft 6 kts 277°
2026-04-30 09:43 56.48853 -132.38225 27 ft 1 kts 194°
2026-04-30 09:43 56.48841 -132.38201 28 ft 7 kts 126°
2026-04-30 09:44 56.48760 -132.37963 27 ft 54 kts 122°
2026-04-30 09:44 56.48430 -132.36985 28 ft 124 kts 122°
2026-04-30 09:44 56.47911 -132.35412 272 ft 156 kts 118°
2026-04-30 09:44 56.47513 -132.33658 1154 ft 145 kts 101°
2026-04-30 09:45 56.47303 -132.31868 1957 ft 153 kts 105°
2026-04-30 09:45 56.47035 -132.29810 2343 ft 185 kts 105°
2026-04-30 09:45 56.46690 -132.27380 2767 ft 209 kts 111°
2026-04-30 09:45 56.45972 -132.25089 3498 ft 211 kts 134°
2026-04-30 09:46 56.44851 -132.23406 3902 ft 208 kts 152°
2026-04-30 09:46 56.43495 -132.22443 3995 ft 213 kts 170°
2026-04-30 09:46 56.42030 -132.22307 4006 ft 211 kts 187°
2026-04-30 09:46 56.40626 -132.23015 4016 ft 210 kts 205°
2026-04-30 09:47 56.39441 -132.24445 4009 ft 207 kts 222°
2026-04-30 09:47 56.38427 -132.26281 4018 ft 206 kts 223°
2026-04-30 09:47 56.37396 -132.28095 4023 ft 208 kts 223°
2026-04-30 09:47 56.36365 -132.29927 4016 ft 208 kts 226°
2026-04-30 09:48 56.35536 -132.32063 4014 ft 210 kts 244°
2026-04-30 09:48 56.35148 -132.34614 4003 ft 214 kts 262°
2026-04-30 09:48 56.35238 -132.37302 4005 ft 218 kts 280°
2026-04-30 09:48 56.35823 -132.39833 4011 ft 222 kts 299°
2026-04-30 09:49 56.36909 -132.41975 4035 ft 249 kts 320°
2026-04-30 09:49 56.38488 -132.43435 4018 ft 260 kts 340°
2026-04-30 09:49 56.40192 -132.44381 4029 ft 251 kts 340°
2026-04-30 09:49 56.41811 -132.45318 4008 ft 238 kts 339°
2026-04-30 09:50 56.43358 -132.46230 4004 ft 233 kts 339°
2026-04-30 09:50 56.44905 -132.47151 4000 ft 234 kts 339°
2026-04-30 09:50 56.46443 -132.48069 4005 ft 231 kts 339°
2026-04-30 09:50 56.47960 -132.48975 3994 ft 226 kts 339°
2026-04-30 09:51 56.49408 -132.49883 3981 ft 213 kts 331°
2026-04-30 09:51 56.50462 -132.51561 4028 ft 200 kts 302°
2026-04-30 09:51 56.51235 -132.53678 4014 ft 203 kts 298°
2026-04-30 09:51 56.51981 -132.55890 4020 ft 208 kts 297°
2026-04-30 09:52 56.52727 -132.58126 4022 ft 207 kts 297°
2026-04-30 09:52 56.53470 -132.60353 4002 ft 206 kts 296°
2026-04-30 09:52 56.54210 -132.62568 4010 ft 205 kts 297°
2026-04-30 09:52 56.54948 -132.64777 4004 ft 205 kts 296°
2026-04-30 09:53 56.55685 -132.66982 4014 ft 205 kts 296°
2026-04-30 09:53 56.56426 -132.69193 4000 ft 205 kts 296°
2026-04-30 09:53 56.57168 -132.71395 3773 ft 204 kts 296°
2026-04-30 09:53 56.57912 -132.73615 3419 ft 209 kts 296°
2026-04-30 09:54 56.58702 -132.75995 3264 ft 236 kts 297°
2026-04-30 09:54 56.59584 -132.78645 3226 ft 251 kts 297°
2026-04-30 09:54 56.60498 -132.81364 3207 ft 253 kts 297°
2026-04-30 09:54 56.61411 -132.84086 3190 ft 250 kts 297°
2026-04-30 09:55 56.62289 -132.86703 3203 ft 242 kts 297°
2026-04-30 09:55 56.63141 -132.89241 3193 ft 230 kts 296°
2026-04-30 09:55 56.63955 -132.91672 3190 ft 221 kts 297°
2026-04-30 09:55 56.65029 -132.93622 3187 ft 223 kts 331°
2026-04-30 09:56 56.66534 -132.94258 2991 ft 226 kts 355°
2026-04-30 09:56 56.68089 -132.94292 2713 ft 222 kts
2026-04-30 09:56 56.69631 -132.94264 2377 ft 220 kts
2026-04-30 09:56 56.71138 -132.94251 2034 ft 211 kts
2026-04-30 09:57 56.72563 -132.94354 1728 ft 200 kts 350°
2026-04-30 09:57 56.73835 -132.95133 1439 ft 187 kts 329°
2026-04-30 09:57 56.74800 -132.96563 1203 ft 172 kts 309°
2026-04-30 09:57 56.75563 -132.98100 1050 ft 155 kts 313°
2026-04-30 09:58 56.76267 -132.99453 1007 ft 139 kts 311°
2026-04-30 09:58 56.76946 -133.00636 885 ft 129 kts 330°
2026-04-30 09:58 56.77791 -133.00943 887 ft 126 kts
2026-04-30 09:58 56.78681 -133.00721 757 ft 130 kts
2026-04-30 09:59 56.79575 -132.98555 513 ft 125 kts 92°
2026-04-30 09:59 56.79964 -132.95625 124 ft 115 kts 73°
2026-04-30 10:00 56.80233 -132.94187 113 ft 23 kts 73°
2026-04-30 10:00 56.80284 -132.93914 113 ft 22 kts 69°
2026-04-30 10:01 56.80355 -132.93551 112 ft 10 kts 68°
2026-04-30 10:01 56.80375 -132.93429 112 ft 10 kts 68°
2026-04-30 10:01 56.80435 -132.93385 112 ft 10 kts 359°
2026-04-30 10:02 56.80481 -132.93405 112 ft 1 kts 342°
2026-04-30 10:02 56.80486 -132.93408 112 ft 1 kts 342°
2026-04-30 10:02 56.80497 -132.93414 113 ft 3 kts 344°
2026-04-30 10:02 56.80528 -132.93432 111 ft 6 kts 340°
2026-04-30 10:03 56.80566 -132.93456 113 ft 0 kts 341°